This demonstration page uses our WeatherBlox Daily Observations layout. Learn more.

Left ArrowRight Arrow

Hourly Observations for January 28, 2019

Temp ( °F °C ) Dew Point ( °F °C ) Humidity (%) Winds ( mph kmh ) Pressure ( in mb ) Visibility ( mi km ) Precip ( " mm )
12:51 am 00:51 Clear 34 1.1 20 -6.7 56 56 SE 5 7 29.97 1015 10 16 N/A
1:51 am 01:51 Clear 34 1.1 20 -6.7 56 56 ESE 5 7 29.97 1015 10 16 N/A
2:51 am 02:51 Clear 33 0.6 20 -6.7 58 58 ESE 7 11 29.97 1015 10 16 N/A
3:51 am 03:51 Clear 33 0.6 20 -6.7 58 58 ESE 6 9 29.97 1015 10 16 N/A
4:51 am 04:51 Clear 32 undefined 21 -6.1 64 64 SE 9 15 29.97 1015 10 16 N/A
5:51 am 05:51 Clear 28 -2.2 20 -6.7 72 72 SE 6 9 30.00 1016 10 16 N/A
6:51 am 06:51 Clear 28 -2.2 20 -6.7 72 72 E 7 11 30.02 1017 10 16 N/A
7:51 am 07:51 Sunny 31 -0.6 21 -6.1 67 67 N N/A 30.04 1017 10 16 N/A
8:51 am 08:51 Sunny 38 3.3 22 -5.6 52 52 N N/A 30.06 1018 10 16 N/A
9:51 am 09:51 Sunny 46 7.8 23 -5 40 40 SSE 7 11 30.05 1018 10 16 N/A
10:51 am 10:51 Sunny 51 10.6 23 -5 33 33 S 5 7 30.04 1017 10 16 N/A
11:51 am 11:51 Sunny 57 13.9 21 -6.1 25 25 N N/A 30.01 1016 10 16 N/A
12:51 pm 12:51 Sunny 60 15.6 21 -6.1 22 22 N N/A 29.97 1015 10 16 N/A
1:51 pm 13:51 Sunny 63 17.2 21 -6.1 20 20 N N/A 29.93 1014 10 16 N/A
2:51 pm 14:51 Sunny 64 17.8 21 -6.1 19 19 WNW 6 9 29.91 1013 10 16 N/A
3:51 pm 15:51 Sunny 66 18.9 21 -6.1 18 18 WNW 8 13 29.91 1013 10 16 N/A
4:51 pm 16:51 Sunny 65 18.3 22 -5.6 19 19 WNW 9 15 29.91 1013 10 16 N/A
5:51 pm 17:51 Clear 56 13.3 24 -4.4 29 29 W 8 13 29.94 1014 10 16 N/A
6:51 pm 18:51 Clear 51 10.6 24 -4.4 35 35 N 3 6 29.96 1015 10 16 N/A
7:51 pm 19:51 Clear 52 11.1 24 -4.4 34 34 N 3 6 29.98 1015 10 16 N/A
8:51 pm 20:51 Clear 46 7.8 25 -3.9 44 44 E 5 7 30.00 1016 10 16 N/A
9:51 pm 21:51 Clear 45 7.2 24 -4.4 44 44 E 6 9 29.99 1016 10 16 N/A
10:51 pm 22:51 Clear 42 5.6 25 -3.9 51 51 N N/A 29.99 1016 10 16 N/A
11:51 pm 23:51 Clear 47 8.3 25 -3.9 42 42 N N/A 29.98 1015 10 16 N/A

Powered by AerisWeather